This is the latest recevied weather packets stored in our database for station/object W4TJP. If no packets are shown the sender has not sent any weather packets the latest 1 day(s).
| Time | Temp. | Humidity | Pressure | Rain* | Wind** | Luminosity | Snow |
|---|---|---|---|---|---|---|---|
| 1778057357 | 19.44° C | 78% | 1008.3 hPa | 0 mm | - | 0 W/m² | - |
| 1778057054 | 19.44° C | 78% | 1008 hPa | 0 mm | - | 0 W/m² | - |
| 1778056750 | 19.44° C | 78% | 1008 hPa | 0 mm | - | 0 W/m² | - |
| 1778056145 | 19.44° C | 77% | 1008.1 hPa | 0 mm | - | 0 W/m² | - |
| 1778055537 | 19.44° C | 77% | 1008.1 hPa | 0 mm | - | 0 W/m² | - |
| 1778054932 | 19.44° C | 76% | 1007.8 hPa | 0 mm | - | 0 W/m² | - |
| 1778053418 | 20° C | 75% | 1008 hPa | 0 mm | - | 0 W/m² | - |
| 1778053116 | 19.44° C | 75% | 1007.9 hPa | 0 mm | - | 0 W/m² | - |
| 1778052510 | 19.44° C | 74% | 1007.7 hPa | 0 mm | - | 0 W/m² | - |
| 1778052208 | 19.44° C | 74% | 1008 hPa | 0 mm | - | 0 W/m² | - |
| 1778051604 | 19.44° C | 74% | 1008.1 hPa | 0 mm | - | 0 W/m² | - |
| 1778051300 | 19.44° C | 73% | 1008 hPa | 0 mm | - | 0 W/m² | - |
| 1778050997 | 19.44° C | 73% | 1007.9 hPa | 0 mm | - | 0 W/m² | - |
| 1778050694 | 20° C | 73% | 1008 hPa | 0 mm | - | 0 W/m² | - |
| 1778048574 | 19.44° C | 72% | 1008.6 hPa | 0 mm | - | 0 W/m² | - |
| 1778048270 | 19.44° C | 71% | 1008.5 hPa | 0 mm | - | 0 W/m² | - |
| 1778047967 | 19.44° C | 71% | 1008.7 hPa | 0 mm | - | 0 W/m² | - |
| 1778047363 | 19.44° C | 71% | 1009 hPa | 0 mm | - | 0 W/m² | - |
| 1778046756 | 18.89° C | 72% | 1009.1 hPa | 0 mm | - | 0 W/m² | - |
| 1778045847 | 18.89° C | 72% | 1009.1 hPa | 0 mm | - | 0 W/m² | - |
| 1778045243 | 18.33° C | 74% | 1009.1 hPa | 0 mm | - | 0 W/m² | - |
| 1778044033 | 18.89° C | 71% | 1009.5 hPa | 0 mm | - | 0 W/m² | - |
| 1778043123 | 18.89° C | 72% | 1009.5 hPa | 0 mm | - | 0 W/m² | - |
| 1778042517 | 18.89° C | 72% | 1009.5 hPa | 0 mm | - | 0 W/m² | - |
| 1778041913 | 18.89° C | 72% | 1010 hPa | 0 mm | - | 0 W/m² | - |
* Rain latest hour (hover to see other rain measurements)
** Current wind speed in m/s (hover to see current wind gust speed)